• In Russia
  • List of Countries
  • For 7 days
  • Water Temperature
  • Satellite Maps
  • Weather Map
  • Weather Widgets
  • user-avatar
    Login

    Hourly Weather Kaprun

    Today, 22 May, Tuesday

    Time Temperature Precipitation Wind Pressure Humidity
    00:00 +2°C° 0 mm 2 mps 595 mmHg 94%
    01:00 +2°C° 0 mm 2 mps 594 mmHg 95%
    02:00 +2°C° 0 mm 2 mps 594 mmHg 94%
    03:00 +1°C° 0 mm 2 mps 594 mmHg 94%
    04:00 +1°C° 0 mm 2 mps 594 mmHg 94%
    05:00 +4°C° 0 mm 1 mps 595 mmHg 90%
    06:00 +5°C° 0 mm 1 mps 595 mmHg 87%
    07:00 +6°C° 0 mm 1 mps 596 mmHg 83%
    08:00 +8°C° 0 mm 1 mps 596 mmHg 75%
    09:00 +9°C° 0 mm 1 mps 597 mmHg 68%
    10:00 +11°C° 0 mm 1 mps 598 mmHg 60%
    11:00 +11°C° 0.3 mm 1 mps 598 mmHg 61%
    12:00 +11°C° 0.3 mm 1 mps 598 mmHg 62%
    13:00 +11°C° 0.3 mm 1 mps 598 mmHg 63%
    14:00 +11°C° 0.2 mm 1 mps 597 mmHg 65%
    15:00 +11°C° 0.2 mm 1 mps 597 mmHg 67%
    16:00 +10°C° 0.2 mm 1 mps 597 mmHg 69%
    17:00 +9°C° 0.1 mm 1 mps 597 mmHg 73%
    18:00 +9°C° 0.1 mm 1 mps 596 mmHg 78%
    19:00 +8°C° 0.1 mm 1 mps 596 mmHg 83%
    20:00 +6°C° 0 mm 1 mps 596 mmHg 85%
    21:00 +5°C° 0 mm 1 mps 596 mmHg 88%
    22:00 +4°C° 0 mm 1 mps 595 mmHg 91%
    23:00 +4°C° 0 mm 1 mps 596 mmHg 91%

    Tomorrow, 23 May, Wednesday

    Time Temperature Precipitation Wind Pressure Humidity
    00:00 +4°C° 0 mm 1 mps 596 mmHg 91%
    01:00 +3°C° 0 mm 1 mps 596 mmHg 91%
    02:00 +3°C° 0 mm 1 mps 596 mmHg 91%
    03:00 +3°C° 0 mm 1 mps 596 mmHg 91%
    04:00 +3°C° 0 mm 1 mps 596 mmHg 91%
    05:00 +5°C° 0 mm 1 mps 597 mmHg 85%
    06:00 +6°C° 0 mm 1 mps 598 mmHg 80%
    07:00 +7°C° 0 mm 0 mps 599 mmHg 74%
    08:00 +9°C° 0 mm 0 mps 600 mmHg 67%
    09:00 +12°C° 0 mm 1 mps 600 mmHg 61%
    10:00 +13°C° 0 mm 1 mps 601 mmHg 55%
    11:00 +14°C° 0.5 mm 1 mps 601 mmHg 58%
    12:00 +14°C° 0.5 mm 1 mps 601 mmHg 60%
    13:00 +14°C° 0.5 mm 1 mps 601 mmHg 63%
    14:00 +13°C° 1 mm 1 mps 601 mmHg 66%
    15:00 +13°C° 1 mm 1 mps 600 mmHg 69%
    16:00 +13°C° 1 mm 1 mps 600 mmHg 72%
    17:00 +12°C° 0.7 mm 1 mps 600 mmHg 77%
    18:00 +11°C° 0.7 mm 1 mps 600 mmHg 83%
    19:00 +10°C° 0.7 mm 1 mps 599 mmHg 89%
    20:00 +8°C° 0.9 mm 1 mps 599 mmHg 91%
    21:00 +7°C° 0.9 mm 1 mps 599 mmHg 93%
    22:00 +6°C° 0.9 mm 1 mps 599 mmHg 95%
    23:00 +5°C° 0.3 mm 1 mps 598 mmHg 95%

    Day after tomorrow, 24 May, Thursday

    Time Temperature Precipitation Wind Pressure Humidity
    00:00 +5°C° 0.3 mm 1 mps 598 mmHg 95%
    01:00 +4°C° 0.3 mm 1 mps 598 mmHg 94%
    02:00 +4°C° 0.1 mm 1 mps 598 mmHg 94%
    03:00 +4°C° 0.1 mm 1 mps 598 mmHg 93%
    04:00 +4°C° 0.1 mm 1 mps 598 mmHg 92%
    05:00 +5°C° 0.1 mm 1 mps 599 mmHg 86%
    06:00 +6°C° 0.1 mm 0 mps 600 mmHg 81%
    07:00 +8°C° 0.1 mm 0 mps 601 mmHg 75%
    08:00 +11°C° 0.1 mm 1 mps 601 mmHg 67%
    09:00 +13°C° 0.1 mm 1 mps 602 mmHg 58%
    10:00 +15°C° 0.1 mm 1 mps 603 mmHg 50%
    11:00 +15°C° 0.4 mm 1 mps 603 mmHg 51%
    12:00 +15°C° 0.4 mm 1 mps 603 mmHg 51%
    13:00 +16°C° 0.4 mm 2 mps 603 mmHg 52%
    14:00 +15°C° 0.8 mm 1 mps 603 mmHg 56%
    15:00 +15°C° 0.8 mm 1 mps 602 mmHg 60%
    16:00 +14°C° 0.8 mm 1 mps 602 mmHg 64%
    17:00 +13°C° 0.7 mm 1 mps 601 mmHg 71%
    18:00 +12°C° 0.7 mm 1 mps 601 mmHg 79%
    19:00 +10°C° 0.7 mm 0 mps 600 mmHg 87%
    20:00 +9°C° 0.4 mm 0 mps 600 mmHg 89%
    21:00 +7°C° 0.4 mm 0 mps 600 mmHg 90%
    22:00 +7°C° 0.4 mm 1 mps 600 mmHg 91%
    23:00 +7°C° 0.2 mm 1 mps 600 mmHg 91%

    25 May, Friday

    Time Temperature Precipitation Wind Pressure Humidity
    00:00 +7°C° 0.2 mm 1 mps 599 mmHg 91%
    01:00 +6°C° 0.2 mm 1 mps 599 mmHg 92%
    02:00 +6°C° 0 mm 1 mps 599 mmHg 91%
    03:00 +5°C° 0 mm 1 mps 599 mmHg 91%
    04:00 +5°C° 0 mm 1 mps 599 mmHg 91%
    05:00 +7°C° 0 mm 1 mps 600 mmHg 87%
    06:00 +9°C° 0 mm 1 mps 600 mmHg 82%
    07:00 +10°C° 0 mm 1 mps 601 mmHg 78%
    08:00 +12°C° 0 mm 1 mps 602 mmHg 68%
    09:00 +14°C° 0 mm 1 mps 603 mmHg 58%
    10:00 +18°C° 0 mm 1 mps 604 mmHg 47%
    11:00 +18°C° 0.1 mm 1 mps 604 mmHg 47%
    12:00 +18°C° 0.1 mm 1 mps 604 mmHg 46%
    13:00 +19°C° 0.1 mm 1 mps 604 mmHg 45%
    14:00 +17°C° 0.7 mm 2 mps 603 mmHg 51%
    15:00 +16°C° 0.7 mm 2 mps 603 mmHg 57%
    16:00 +16°C° 0.7 mm 2 mps 603 mmHg 64%
    17:00 +14°C° 1.1 mm 1 mps 602 mmHg 71%
    18:00 +13°C° 1.1 mm 1 mps 602 mmHg 79%
    19:00 +11°C° 1.1 mm 1 mps 601 mmHg 86%
    20:00 +10°C° 0.2 mm 1 mps 601 mmHg 88%
    21:00 +9°C° 0.2 mm 1 mps 600 mmHg 89%
    22:00 +7°C° 0.2 mm 1 mps 600 mmHg 90%
    23:00 +7°C° 0 mm 1 mps 600 mmHg 89%

    26 May, Saturday

    Time Temperature Precipitation Wind Pressure Humidity
    00:00 +6°C° 0 mm 1 mps 600 mmHg 88%
    01:00 +6°C° 0 mm 1 mps 600 mmHg 87%
    02:00 +6°C° 0 mm 1 mps 599 mmHg 86%
    03:00 +6°C° 0 mm 1 mps 599 mmHg 85%
    04:00 +5°C° 0 mm 1 mps 599 mmHg 85%
    05:00 +7°C° 0 mm 1 mps 600 mmHg 79%
    06:00 +9°C° 0 mm 1 mps 601 mmHg 74%
    07:00 +11°C° 0 mm 1 mps 602 mmHg 69%
    08:00 +14°C° 0 mm 1 mps 603 mmHg 59%
    09:00 +16°C° 0 mm 1 mps 604 mmHg 49%
    10:00 +20°C° 0 mm 1 mps 605 mmHg 39%
    11:00 +20°C° 0 mm 1 mps 605 mmHg 37%
    12:00 +21°C° 0 mm 1 mps 606 mmHg 36%
    13:00 +21°C° 0 mm 1 mps 606 mmHg 34%
    14:00 +20°C° 0 mm 2 mps 605 mmHg 36%
    15:00 +19°C° 0 mm 2 mps 605 mmHg 39%
    16:00 +19°C° 0 mm 2 mps 605 mmHg 41%
    17:00 +17°C° 0.3 mm 2 mps 604 mmHg 53%
    18:00 +15°C° 0.3 mm 1 mps 604 mmHg 65%
    19:00 +13°C° 0.3 mm 1 mps 603 mmHg 77%
    20:00 +12°C° 0.1 mm 1 mps 603 mmHg 80%
    21:00 +10°C° 0.1 mm 1 mps 602 mmHg 83%
    22:00 +9°C° 0.1 mm 1 mps 602 mmHg 86%
    23:00 +8°C° 0 mm 1 mps 602 mmHg 85%

    27 May, Sunday

    Time Temperature Precipitation Wind Pressure Humidity
    00:00 +8°C° 0 mm 1 mps 602 mmHg 84%
    01:00 +7°C° 0 mm 1 mps 602 mmHg 83%
    02:00 +7°C° 0 mm 1 mps 601 mmHg 81%
    03:00 +7°C° 0 mm 1 mps 601 mmHg 79%
    04:00 +7°C° 0 mm 1 mps 601 mmHg 78%
    05:00 +9°C° 0 mm 1 mps 602 mmHg 71%
    06:00 +11°C° 0 mm 1 mps 603 mmHg 65%
    07:00 +13°C° 0 mm 1 mps 604 mmHg 59%
    08:00 +15°C° 0 mm 1 mps 605 mmHg 51%
    09:00 +18°C° 0 mm 1 mps 606 mmHg 44%
    10:00 +20°C° 0 mm 1 mps 607 mmHg 37%
    11:00 +21°C° 0 mm 1 mps 607 mmHg 36%
    12:00 +22°C° 0 mm 1 mps 607 mmHg 34%
    13:00 +21°C° 0 mm 2 mps 607 mmHg 33%
    14:00 +21°C° 0.1 mm 2 mps 606 mmHg 37%
    15:00 +20°C° 0.1 mm 2 mps 606 mmHg 40%
    16:00 +19°C° 0.1 mm 2 mps 605 mmHg 43%
    17:00 +18°C° 0.2 mm 2 mps 605 mmHg 55%
    18:00 +16°C° 0.2 mm 1 mps 604 mmHg 66%
    19:00 +14°C° 0.2 mm 1 mps 603 mmHg 77%
    20:00 +13°C° 0.1 mm 1 mps 603 mmHg 82%
    21:00 +11°C° 0.1 mm 1 mps 602 mmHg 86%
    22:00 +9°C° 0.1 mm 1 mps 602 mmHg 90%
    23:00 +9°C° 0 mm 1 mps 602 mmHg 90%
    Show more